Regional Weather Roundup
Issued by NWS

Home | Current Version | Previous Version | Text Only | Print | Product List | Glossary Off
Versions: 1 2 3 4 5 6 7 8 9 10 11 12 13 14 15 16 17 18 19 20 21 22 23 24 25 26 27 28 29 30 31 32 33 34 35 36 37 38 39 40 41 42 43 44 45 46 47 48 49 50

000
ASUS45 KABQ 270810
RWRNM
NEW MEXICO REGIONAL WEATHER ROUNDUP
NATIONAL WEATHER SERVICE ALBUQUERQUE NM
200 AM MDT WED MAY 27 2015

NOTE: "FAIR" MEANS FEW OR NO CLOUDS BELOW 12,000 FEET AGL WITH NO
       SIGNIFICANT WEATHER OR OBSTRUCTIONS TO VISION.

      THIS PRODUCT IS RELEASED AS TWO VERSIONS.  ONE VERSION NEAR
      THE TOP OF THE HOUR CONTAINING PRELIMINARY DATA FROM ALBUQUERQUE
      AND OTHER STATIONS.  A FINAL VERSION WITH ADDITIONAL DATA IS
      ISSUED ABOUT 10 MINUTES AFTER THE HOUR.

NMZ501-503-504-510>518-270900-
NORTHWEST PLATEAU/NORTHCENTRAL MOUNTAINS

CITY           SKY/WX    TMP DP  RH WIND       PRES   REMARKS
FARMINGTON     PTCLDY    55  44  66 E8        30.10S
LOS ALAMOS     PTCLDY    55  35  47 W8        30.22S
SANTA FE       MOCLDY    53  43  68 E7        30.16F
TAOS           CLOUDY    48  36  61 CALM      30.23R
ANGEL FIRE     CLOUDY    43  36  76 SE3       30.29R

$$
NMZ402-403-502-505>509-270900-
WESTCENTRAL MOUNTAINS/SOUTHWEST MOUNTAINS

CITY           SKY/WX    TMP DP  RH WIND       PRES   REMARKS
GALLUP         PTCLDY    46  37  71 NE7       30.18S
GRANTS         PTCLDY    49  34  55 CALM      30.20S
SILVER CITY      N/A     54  21  28 N10       30.11S

$$
NMZ407-409-411-412-270900-
SOUTHERN DESERTS

CITY           SKY/WX    TMP DP  RH WIND       PRES   REMARKS
LORDSBURG      FAIR      55  18  22 CALM      30.04S
DEMING         CLEAR     57  22  25 NW5       30.04F
LAS CRUCES     CLEAR     57  24  27 W6        30.05S
HOLLOMAN AFB   PTCLDY    59  35  40 NW8       30.01R
ALAMOGORDO     PTCLDY    63  28  27 W5        30.03S
T OR C         CLEAR     63  24  22 NW9       30.05S

$$
NMZ519>523-270900-
CENTRAL VALLEYS/CENTRAL HIGHLANDS

CITY           SKY/WX    TMP DP  RH WIND       PRES   REMARKS
ALBUQUERQUE    MOCLDY    63  44  50 E8        30.10F
DOUBLE EAGLE   MOCLDY    55  46  70 N6        30.14R
MORIARTY ARPT  CLOUDY    55  43  65 NE6       30.17S
CLINES CORNERS MOCLDY    54  40  59 NW8       30.19F
BELEN          FAIR      59  49  69 NE3       30.10R
SOCORRO        FAIR      60  41  50 CALM      30.07S

$$
NMZ524>526-539-540-270900-
SOUTHCENTRAL MOUNTAINS

CITY           SKY/WX    TMP DP  RH WIND       PRES   REMARKS
RUIDOSO        PTCLDY    55  28  35 CALM      30.22R

$$
NMZ527>531-270900-
NORTHEAST HIGHLANDS/NORTHEAST PLAINS

CITY           SKY/WX    TMP DP  RH WIND       PRES   REMARKS
LAS VEGAS      MOCLDY    55  37  50 SW13      30.22R
RATON          CLEAR     49  43  80 N7        30.16F
CLAYTON        CLEAR     53  46  77 N5        30.12R

$$
NMZ532>537-270900-
EASTCENTRAL PLAINS

CITY           SKY/WX    TMP DP  RH WIND       PRES   REMARKS
TUCUMCARI      MOCLDY    62  52  69 W10       30.05R
CANNON AFB     NOT AVBL
CLOVIS AIRPORT CLEAR     55  50  82 SE3       30.04R

$$
NMZ028-029-538-270900-
SOUTHEAST PLAINS

CITY           SKY/WX    TMP DP  RH WIND       PRES   REMARKS
ROSWELL        PTCLDY    60  45  57 W7        30.01S
ARTESIA        PTCLDY    59  34  38 W6        30.02S
CARLSBAD       PTCLDY    58  42  55 CALM      29.99S
HOBBS          CLEAR     61  59  94 S7        30.04F


$$


USA.gov is the U.S. government's official web portal to all federal, state and local government web resources and services.